sat.trackr.live / text

‹ back to catalog

ONEWEB-0644

NORAD 55808 · 2023-029N

PAYLOAD ACTIVE UNKNOWN

§ Identity

Operator
Country
UK
Launch date
2023-03-09
Launch site
AFETR
Launch vehicle
Mass (kg)
RCS (m²)

Purposes: comms

External: N2YO · Heavens-Above · Gunter

§ Orbital elements

Epoch: 2026-09-20T00:23:15.614016Z

Period
109.11 min
Inclination
87.9100°
Eccentricity
0.0001691
Mean motion
13.19726305 rev/d
Perigee alt
1,184.5 km
Apogee alt
1,187.0 km
Semi-major
7,563.9 km
B*
4.7269e-4
RAAN
286.0811°
Arg perigee
83.2718°
Mean anomaly
276.8607°
Rev number
17,141

§ Raw data

ONEWEB-06441 55808U 23029N   26263.01615294  .00000202  00000+0  47269-3 0  99932 55808  87.9100 286.0811 0001691  83.2718 276.8607 13.19726305171412

JSON: /api/v1/satellites/55808 · /tle

For live sub-satellite position, see the globe view (requires WebGL).

§ Visibility from observer

Set your observer location to see the next 7 days of passes ≥ 10°. The values pass through the URL so the page stays shareable.

No JS? Fill the form by hand. The geolocation button needs JavaScript.